When you browse on this site, cookies collect data to enhance your experience and personalize the content and advertising you see.
Visit our Privacy Policy to learn more. By continuing to use the site, you agree to this use of cookies and data.
  • In Romania
  • List of Countries
  • For 7 days
  • Water Temperature
  • Satellite Maps
  • Weather Map
  • Weather Widgets
  • user-avatar
    Login

    Hourly Weather Zubchaninovka

    Today, 24 March, Sunday

    Time Temperature Precipitation Wind Pressure Humidity
    00:00 -3°C° 0 mm 2 mps 761 mmHg 96%
    01:00 -3°C° 0 mm 2 mps 761 mmHg 95%
    02:00 -4°C° 0 mm 2 mps 761 mmHg 95%
    03:00 -4°C° 0 mm 2 mps 761 mmHg 95%
    04:00 -4°C° 0 mm 2 mps 761 mmHg 94%
    05:00 -4°C° 0 mm 2 mps 761 mmHg 94%
    06:00 -4°C° 0 mm 2 mps 761 mmHg 94%
    07:00 -3°C° 0 mm 2 mps 761 mmHg 93%
    08:00 -2°C° 0 mm 2 mps 761 mmHg 91%
    09:00 -2°C° 0 mm 2 mps 761 mmHg 90%
    10:00 -1°C° 0 mm 2 mps 760 mmHg 92%
    11:00 -1°C° 0 mm 2 mps 760 mmHg 93%
    12:00 +1°C° 0 mm 2 mps 759 mmHg 94%
    13:00 +1°C° 0 mm 2 mps 759 mmHg 95%
    14:00 0°C° 0 mm 3 mps 759 mmHg 96%
    15:00 +1°C° 0 mm 2 mps 758 mmHg 97%
    16:00 0°C° 0 mm 3 mps 757 mmHg 97%
    17:00 0°C° 0 mm 3 mps 757 mmHg 97%
    18:00 -1°C° 0 mm 3 mps 756 mmHg 98%
    19:00 -1°C° 0 mm 3 mps 755 mmHg 97%
    20:00 -2°C° 0 mm 4 mps 754 mmHg 97%
    21:00 -2°C° 0 mm 4 mps 753 mmHg 96%
    22:00 -2°C° 0.4 mm 5 mps 752 mmHg 95%
    23:00 -1°C° 0.4 mm 5 mps 750 mmHg 95%

    Tomorrow, 25 March, Monday

    Time Temperature Precipitation Wind Pressure Humidity
    00:00 -2°C° 0.4 mm 6 mps 749 mmHg 94%
    01:00 -2°C° 1.5 mm 6 mps 748 mmHg 95%
    02:00 0°C° 1.5 mm 5 mps 746 mmHg 96%
    03:00 0°C° 1.5 mm 5 mps 745 mmHg 98%
    04:00 0°C° 0.4 mm 5 mps 744 mmHg 95%
    05:00 -1°C° 0.4 mm 5 mps 744 mmHg 93%
    06:00 -1°C° 0.4 mm 5 mps 743 mmHg 91%
    07:00 -2°C° 0.1 mm 6 mps 743 mmHg 91%
    08:00 -2°C° 0.1 mm 6 mps 743 mmHg 91%
    09:00 -2°C° 0.1 mm 7 mps 743 mmHg 90%
    10:00 -2°C° 0.2 mm 7 mps 743 mmHg 89%
    11:00 -2°C° 0.2 mm 8 mps 743 mmHg 88%
    12:00 -1°C° 0.2 mm 8 mps 744 mmHg 87%
    13:00 -2°C° 0.2 mm 8 mps 745 mmHg 86%
    14:00 -2°C° 0.2 mm 8 mps 745 mmHg 85%
    15:00 -2°C° 0.2 mm 8 mps 746 mmHg 84%
    16:00 -2°C° 0.1 mm 7 mps 747 mmHg 85%
    17:00 -2°C° 0.1 mm 6 mps 747 mmHg 86%
    18:00 -2°C° 0.1 mm 6 mps 748 mmHg 87%
    19:00 -2°C° 0.1 mm 6 mps 749 mmHg 86%
    20:00 -1°C° 0.1 mm 5 mps 750 mmHg 85%
    21:00 -1°C° 0.1 mm 5 mps 750 mmHg 85%
    22:00 -2°C° 0 mm 5 mps 751 mmHg 86%
    23:00 -3°C° 0 mm 6 mps 752 mmHg 87%

    Day after tomorrow, 26 March, Tuesday

    Time Temperature Precipitation Wind Pressure Humidity
    00:00 -3°C° 0 mm 6 mps 752 mmHg 88%
    01:00 -4°C° 0 mm 5 mps 753 mmHg 88%
    02:00 -4°C° 0 mm 5 mps 754 mmHg 88%
    03:00 -3°C° 0 mm 4 mps 755 mmHg 89%
    04:00 -4°C° 0 mm 4 mps 755 mmHg 89%
    05:00 -4°C° 0 mm 4 mps 756 mmHg 90%
    06:00 -5°C° 0 mm 4 mps 756 mmHg 90%
    07:00 -4°C° 0 mm 4 mps 757 mmHg 89%
    08:00 -3°C° 0 mm 4 mps 757 mmHg 87%
    09:00 -2°C° 0 mm 4 mps 757 mmHg 85%
    10:00 -1°C° 0 mm 4 mps 758 mmHg 84%
    11:00 -1°C° 0 mm 4 mps 758 mmHg 83%
    12:00 0°C° 0 mm 4 mps 758 mmHg 82%
    13:00 0°C° 0 mm 4 mps 758 mmHg 82%
    14:00 0°C° 0 mm 4 mps 758 mmHg 81%
    15:00 0°C° 0 mm 4 mps 758 mmHg 81%
    16:00 -1°C° 0 mm 4 mps 758 mmHg 83%
    17:00 -1°C° 0 mm 4 mps 757 mmHg 84%
    18:00 -2°C° 0 mm 4 mps 757 mmHg 86%
    19:00 -2°C° 0.1 mm 5 mps 757 mmHg 85%
    20:00 -2°C° 0.1 mm 5 mps 757 mmHg 84%
    21:00 -2°C° 0.1 mm 6 mps 756 mmHg 83%
    22:00 -2°C° 0.5 mm 6 mps 756 mmHg 83%
    23:00 -1°C° 0.5 mm 7 mps 755 mmHg 84%

    27 March, Wednesday

    Time Temperature Precipitation Wind Pressure Humidity
    00:00 0°C° 0.5 mm 7 mps 755 mmHg 84%
    01:00 0°C° 0.8 mm 7 mps 754 mmHg 83%
    02:00 0°C° 0.8 mm 8 mps 754 mmHg 83%
    03:00 0°C° 0.8 mm 8 mps 754 mmHg 82%
    04:00 0°C° 0.7 mm 8 mps 754 mmHg 83%
    05:00 0°C° 0.7 mm 8 mps 754 mmHg 84%
    06:00 0°C° 0.7 mm 7 mps 754 mmHg 86%
    07:00 0°C° 0.9 mm 7 mps 754 mmHg 86%
    08:00 -1°C° 0.9 mm 7 mps 754 mmHg 86%
    09:00 -1°C° 0.9 mm 7 mps 754 mmHg 86%
    10:00 -1°C° 0.9 mm 7 mps 755 mmHg 88%
    11:00 -1°C° 0.9 mm 7 mps 755 mmHg 89%
    12:00 -1°C° 0.9 mm 7 mps 755 mmHg 91%
    13:00 -1°C° 0.6 mm 6 mps 755 mmHg 93%
    14:00 0°C° 0.6 mm 5 mps 756 mmHg 95%
    15:00 0°C° 0.6 mm 4 mps 756 mmHg 97%
    16:00 -1°C° 0.1 mm 4 mps 756 mmHg 97%
    17:00 0°C° 0.1 mm 3 mps 756 mmHg 97%
    18:00 +1°C° 0.1 mm 2 mps 757 mmHg 97%
    19:00 +1°C° 0 mm 2 mps 757 mmHg 96%
    20:00 +1°C° 0 mm 2 mps 757 mmHg 96%
    21:00 +1°C° 0 mm 2 mps 757 mmHg 95%
    22:00 +1°C° 0 mm 1 mps 757 mmHg 95%
    23:00 +1°C° 0 mm 1 mps 757 mmHg 94%

    28 March, Thursday

    Time Temperature Precipitation Wind Pressure Humidity
    00:00 0°C° 0 mm 1 mps 757 mmHg 94%
    01:00 0°C° 0 mm 1 mps 757 mmHg 93%
    02:00 -1°C° 0 mm 1 mps 757 mmHg 93%
    03:00 -1°C° 0 mm 1 mps 757 mmHg 93%
    04:00 -1°C° 0 mm 1 mps 757 mmHg 92%
    05:00 -1°C° 0 mm 1 mps 757 mmHg 90%
    06:00 -1°C° 0 mm 1 mps 757 mmHg 89%
    07:00 -1°C° 0 mm 1 mps 757 mmHg 86%
    08:00 0°C° 0 mm 1 mps 757 mmHg 84%
    09:00 -1°C° 0 mm 2 mps 757 mmHg 82%
    10:00 +1°C° 0 mm 2 mps 757 mmHg 79%
    11:00 +1°C° 0 mm 2 mps 757 mmHg 77%
    12:00 +2°C° 0 mm 2 mps 757 mmHg 74%
    13:00 +2°C° 0 mm 2 mps 757 mmHg 73%
    14:00 +2°C° 0 mm 2 mps 757 mmHg 72%
    15:00 +1°C° 0 mm 3 mps 757 mmHg 71%
    16:00 +1°C° 0 mm 3 mps 757 mmHg 76%
    17:00 0°C° 0 mm 3 mps 757 mmHg 80%
    18:00 -1°C° 0 mm 3 mps 757 mmHg 85%
    19:00 -1°C° 0 mm 3 mps 757 mmHg 86%
    20:00 -1°C° 0 mm 3 mps 757 mmHg 88%
    21:00 -1°C° 0 mm 3 mps 757 mmHg 89%
    22:00 -1°C° 0 mm 3 mps 758 mmHg 90%
    23:00 -2°C° 0 mm 3 mps 758 mmHg 91%

    29 March, Friday

    Time Temperature Precipitation Wind Pressure Humidity
    00:00 -2°C° 0 mm 3 mps 758 mmHg 92%
    01:00 -2°C° 0 mm 3 mps 758 mmHg 91%
    02:00 -2°C° 0 mm 4 mps 758 mmHg 91%
    03:00 -2°C° 0 mm 4 mps 758 mmHg 90%
    04:00 -3°C° 0 mm 4 mps 758 mmHg 88%
    05:00 -3°C° 0 mm 4 mps 759 mmHg 87%
    06:00 -4°C° 0 mm 4 mps 759 mmHg 85%
    07:00 -3°C° 0 mm 4 mps 759 mmHg 80%
    08:00 -3°C° 0 mm 4 mps 759 mmHg 76%
    09:00 -1°C° 0 mm 3 mps 759 mmHg 71%
    10:00 -2°C° 0 mm 4 mps 759 mmHg 69%
    11:00 -1°C° 0 mm 4 mps 759 mmHg 66%
    12:00 0°C° 0 mm 4 mps 759 mmHg 64%
    13:00 0°C° 0 mm 4 mps 758 mmHg 63%
    14:00 0°C° 0 mm 4 mps 758 mmHg 63%
    15:00 0°C° 0 mm 4 mps 757 mmHg 62%
    16:00 0°C° 0 mm 4 mps 757 mmHg 69%
    17:00 -1°C° 0 mm 4 mps 756 mmHg 75%
    18:00 -2°C° 0 mm 4 mps 756 mmHg 81%
    19:00 -2°C° 0.1 mm 4 mps 756 mmHg 84%
    20:00 -2°C° 0.1 mm 4 mps 756 mmHg 87%
    21:00 -3°C° 0.1 mm 4 mps 755 mmHg 90%
    22:00 -3°C° 0 mm 4 mps 755 mmHg 90%
    23:00 -3°C° 0 mm 4 mps 755 mmHg 90%
    Show more